Location: Gerlach
(40.6516°N, 119.3568°W)
Time: 19:03:47
(UTC-08:00)

AO-85 - Visible Passes

Search period start: 26 February 2024 00:00
Search period end: 07 March 2024 00:00
Orbit: 516 x 753 km, 64.8° (Epoch: 04 January)

Date Brightness Start Highest point End Pass type
(mag) Time Alt. Az. Time Alt. Az. Time Alt. Az.
28 Feb ? 20:41:02 10° N 20:41:07 10° N 20:41:07 10° N visible
29 Feb ? 20:59:38 10° NNW 21:00:00 12° NNW 21:00:00 12° NNW visible
01 Mar ? 19:40:20 10° N 19:41:38 12° NNE 19:41:38 12° NNE visible
01 Mar ? 21:18:33 10° NNW 21:18:53 12° NNW 21:18:53 12° NNW visible
02 Mar ? 19:58:25 10° N 20:00:34 19° NNE 20:00:34 19° NNE visible
02 Mar ? 21:37:45 10° NW 21:37:50 10° NW 21:37:50 10° NW visible
03 Mar ? 20:17:03 10° NNW 20:19:33 27° N 20:19:33 27° N visible
04 Mar ? 18:57:33 10° N 19:00:09 14° NE 19:01:21 13° NE visible
04 Mar ? 20:36:00 10° NNW 20:38:37 32° NNW 20:38:37 32° NNW visible
05 Mar ? 19:15:45 10° N 19:19:44 24° NE 19:20:29 23° ENE visible
05 Mar ? 20:55:14 10° NW 20:57:45 29° WNW 20:57:45 29° WNW visible
06 Mar ? 19:34:25 10° NNW 19:39:07 44° NE 19:39:42 42° ENE visible
06 Mar ? 21:14:55 10° WNW 21:16:59 19° WNW 21:16:59 19° WNW visible
